Weather History for Kendall, FL

Change the Weather History Date:

Sunday, June 16, 2013

  Actual Average Record
Temperature  
Mean Temperature 83 °F -  
Max Temperature 91 °F 88 °F 95 °F (2005)
Min Temperature 75 °F 71 °F 61 °F (1990)
Cooling Degree Days 18    
Growing Degree Days 33 (Base 50)    
Moisture  
Dew Point 74 °F    
Average Humidity 73    
Maximum Humidity 94    
Minimum Humidity 50    
Precipitation  
Precipitation 0.00 in - - ()
Sea Level Pressure  
Sea Level Pressure 30.06 in    
Wind  
Wind Speed 4 mph (ESE)    
Max Wind Speed 12 mph    
Max Gust Speed -    
Visibility 10 miles    
Events      
Averages and records for this station are not official NWS values.
T = Trace of Precipitation, MM = Missing Value Source: NWS Daily Summary

Daily Weather History Graph

Daily Weather History Graph

Search for Another Location

Airport:

Trip Planner

Search our weather history database for the weather conditions in past years. The results will help you decide how hot, cold, wet, or windy it might be!

Date:

Astronomy

Jun. 16, 2013 Rise Set
Actual Time 6:30 AM EDT 8:14 PM EDT
Civil Twilight 6:04 AM EDT 8:40 PM EDT
Nautical Twilight 5:33 AM EDT 9:11 PM EDT
Astronomical Twilight 5:00 AM EDT 9:44 PM EDT
Moon 1:23 PM EDT (6/16) 12:56 AM EDT (6/16)
Length of Visible Light 14h 36m
Length of Day
13h 44m
Waxing Crescent, 49% of the Moon is Illuminated
Jun 16
Waxing Crescent
Jun 16
First Quarter
Jun 23
Full
Jun 30
Last Quarter
Jul 8
New

Hourly Weather History & Observations

Time (EDT) Temp. Heat Index Dew Point Humidity Pressure Visibility Wind Dir Wind Speed Gust Speed Precip Events Conditions
12:53 AM 80.1 °F 84.5 °F 73.9 °F 81% 30.07 in 10.0 mi Calm Calm - N/A   Clear
1:53 AM 80.1 °F 84.5 °F 73.9 °F 81% 30.06 in 10.0 mi Calm Calm - N/A   Clear
2:53 AM 78.1 °F - 73.9 °F 87% 30.04 in 10.0 mi Calm Calm - N/A   Clear
3:53 AM 77.0 °F - 73.9 °F 90% 30.04 in 10.0 mi Calm Calm - N/A   Clear
4:53 AM 75.9 °F - 73.9 °F 94% 30.03 in 10.0 mi Calm Calm - N/A   Scattered Clouds
5:53 AM 77.0 °F - 73.9 °F 90% 30.04 in 10.0 mi Calm Calm - N/A   Clear
6:53 AM 77.0 °F - 73.9 °F 90% 30.05 in 10.0 mi Calm Calm - N/A   Clear
7:53 AM 81.0 °F 87.3 °F 75.9 °F 85% 30.06 in 10.0 mi ENE 3.5 mph - N/A   Clear
8:53 AM 82.9 °F 90.2 °F 75.0 °F 77% 30.07 in 10.0 mi East 6.9 mph - N/A   Clear
9:53 AM 84.9 °F 92.1 °F 73.9 °F 69% 30.08 in 10.0 mi East 5.8 mph - N/A   Scattered Clouds
10:53 AM 88.0 °F 95.6 °F 73.0 °F 61% 30.09 in 10.0 mi East 10.4 mph - N/A   Scattered Clouds
11:53 AM 88.0 °F 94.7 °F 72.0 °F 59% 30.08 in 10.0 mi SE 6.9 mph - N/A   Partly Cloudy
12:53 PM 89.1 °F 97.0 °F 73.0 °F 59% 30.08 in 10.0 mi ESE 10.4 mph - N/A   Clear
1:53 PM 89.1 °F 97.0 °F 73.0 °F 59% 30.07 in 10.0 mi East 9.2 mph - N/A   Partly Cloudy
2:53 PM 91.0 °F 96.6 °F 70.0 °F 50% 30.06 in 10.0 mi East 10.4 mph - N/A   Clear
3:53 PM 89.1 °F 98.0 °F 73.9 °F 61% 30.05 in 10.0 mi East 5.8 mph - N/A   Scattered Clouds
4:53 PM 88.0 °F 98.5 °F 75.9 °F 67% 30.04 in 10.0 mi East 11.5 mph - N/A   Partly Cloudy
5:53 PM 84.9 °F 91.4 °F 73.0 °F 67% 30.02 in 10.0 mi East 10.4 mph - N/A   Scattered Clouds
6:53 PM 86.0 °F 93.0 °F 73.0 °F 65% 30.04 in 10.0 mi ESE 9.2 mph - N/A   Clear
7:53 PM 84.0 °F 91.2 °F 73.9 °F 72% 30.05 in 10.0 mi SE 9.2 mph - N/A   Clear
8:53 PM 82.9 °F 87.5 °F 71.1 °F 67% 30.07 in 10.0 mi SE 8.1 mph - N/A   Clear
9:53 PM 82.0 °F 87.9 °F 73.9 °F 76% 30.08 in 10.0 mi ESE 6.9 mph - N/A   Clear
10:53 PM 82.0 °F 87.9 °F 73.9 °F 76% 30.09 in 10.0 mi ESE 4.6 mph - N/A   Clear
11:53 PM 82.0 °F 88.6 °F 75.0 °F 79% 30.09 in 10.0 mi ESE 5.8 mph - N/A   Clear